Location: Betpouey
(42.8833°N, 0.0333°E)
Time: 09:17:25
(UTC+00:00)

FENGYUN 1C DEB - Visible Passes

Search period start: 16 June 2021 00:00
Search period end: 26 June 2021 00:00
Orbit: 667 x 1013 km, 99.2° (Epoch: 15 June)

Date Brightness Start Highest point End Pass type
(mag) Time Alt. Az. Time Alt. Az. Time Alt. Az.
16 Jun ? 21:06:39 10° N 21:11:37 46° WNW 21:17:01 10° SW visible
17 Jun ? 20:51:39 10° N 20:56:51 62° WNW 21:02:31 10° SSW visible
18 Jun ? 20:36:44 10° NNE 20:42:04 83° WNW 20:47:54 10° SSW visible
18 Jun ? 22:19:30 10° NNW 22:21:49 13° WNW 22:24:12 10° W visible
19 Jun ? 20:21:52 10° NNE 20:27:15 75° ESE 20:33:07 10° S visible
19 Jun ? 22:03:47 10° NNW 22:07:12 17° WNW 22:10:46 10° W visible
20 Jun ? 20:07:05 10° NNE 20:12:26 56° ESE 20:18:14 10° S visible
20 Jun ? 21:48:24 10° NNW 21:52:32 23° WNW 21:56:55 10° WSW visible
21 Jun ? 21:33:11 10° N 21:37:51 30° WNW 21:42:50 10° SW visible
22 Jun ? 21:18:05 10° N 21:23:08 39° WNW 21:28:34 10° SW visible
23 Jun ? 21:03:02 10° N 21:08:24 52° WNW 21:14:10 10° SW visible
24 Jun ? 20:48:05 10° N 20:53:38 69° WNW 20:59:38 10° SSW visible
24 Jun ? 22:31:27 10° NW 22:33:12 11° NW 22:35:00 10° WNW visible
25 Jun ? 20:33:12 10° NNE 20:38:51 90° WNW 20:44:57 10° SSW visible
25 Jun ? 22:15:28 10° NNW 22:18:37 15° WNW 22:21:54 10° W visible
